This is the latest recevied weather packets stored in our database for station/object OK3MS-5. If no packets are shown the sender has not sent any weather packets the latest 10 day(s).
| Time | Temp. | Humidity | Pressure | Rain* | Wind** | Luminosity | Snow |
|---|---|---|---|---|---|---|---|
| 1787830204 | 26.11° C | 51% | 1014.7 hPa | 0 mm | - | 615 W/m² | - |
| 1787829904 | 25.56° C | 52% | 1014.8 hPa | 0 mm | - | 674 W/m² | - |
| 1787829603 | 25.56° C | 52% | 1015 hPa | 0 mm | - | 700 W/m² | - |
| 1787829303 | 25.56° C | 51% | 1014.9 hPa | 0 mm | - | 703 W/m² | - |
| 1787829006 | 25.56° C | 52% | 1014.9 hPa | 0 mm | - | 699 W/m² | - |
| 1787828707 | 25.56° C | 52% | 1014.9 hPa | 0 mm | - | 704 W/m² | - |
| 1787828406 | 25.56° C | 52% | 1014.7 hPa | 0 mm | - | 707 W/m² | - |
| 1787828103 | 25.56° C | 52% | 1014.9 hPa | 0 mm | - | 711 W/m² | - |
| 1787827803 | 25.56° C | 52% | 1014.9 hPa | 0 mm | - | 652 W/m² | - |
| 1787827503 | 25.56° C | 52% | 1015.1 hPa | 0 mm | - | 665 W/m² | - |
| 1787827203 | 25.56° C | 52% | 1015.1 hPa | 0 mm | - | 642 W/m² | - |
| 1787826906 | 25.56° C | 53% | 1015.2 hPa | 0 mm | - | 673 W/m² | - |
| 1787826603 | 25.56° C | 54% | 1015.1 hPa | 0 mm | - | 670 W/m² | - |
| 1787826305 | 25.56° C | 55% | 1015.2 hPa | 0 mm | - | 651 W/m² | - |
| 1787826007 | 25° C | 55% | 1015.2 hPa | 0 mm | - | 593 W/m² | - |
| 1787825706 | 25° C | 55% | 1015.2 hPa | 0 mm | - | 496 W/m² | - |
| 1787825404 | 25° C | 54% | 1015.3 hPa | 0 mm | - | 306 W/m² | - |
| 1787825106 | 25° C | 54% | 1015.3 hPa | 0 mm | - | 607 W/m² | - |
| 1787824804 | 24.44° C | 54% | 1015.4 hPa | 0 mm | - | 588 W/m² | - |
| 1787824506 | 25° C | 56% | 1015.3 hPa | 0 mm | - | 606 W/m² | - |
| 1787824204 | 24.44° C | 56% | 1015.3 hPa | 0 mm | - | 598 W/m² | - |
| 1787823903 | 24.44° C | 56% | 1015.4 hPa | 0 mm | - | 581 W/m² | - |
| 1787823603 | 23.89° C | 58% | 1015.4 hPa | 0 mm | - | 590 W/m² | - |
| 1787823303 | 23.89° C | 57% | 1015.4 hPa | 0 mm | - | 598 W/m² | - |
| 1787823005 | 23.89° C | 56% | 1015.4 hPa | 0 mm | - | 462 W/m² | - |
* Rain latest hour (hover to see other rain measurements)
** Current wind speed in m/s (hover to see current wind gust speed)